Вернуться в каталог

STARLINK-11674

АктивенСвязьVLEO
NORAD 64327·PAYLOAD·🇺🇸 United States

Запущен Jun 10, 2025 с Cape Canaveral Space Force Station

Loading…

Ближайшие Пролёты (ближайшие 24 часа)

TLE

СвежийSource: CelesTrak SupGP

Эпоха: Sep 15, 2026, 03:51 UTC

1 64327C 25124L   26258.16090278  .00051246  00000+0  39810-3 0  2581
2 64327  43.0000 326.8347 0001508 264.4688 206.9638 15.70808823    13

Отслеживайте STARLINK-11674 в реальном времени с AllMySat

Download on the App Store